Regional Weather Roundup
Issued by NWS

Home | Current Version | Previous Version | Graphics & Text | Print | Product List | Glossary On
Versions: 1 2 3 4 5 6 7 8 9 10 11 12 13 14 15 16 17 18 19 20 21 22 23 24 25 26 27
000
ASUS45 KBOU 240106
RWRCO

WEATHER ROUNDUP FOR COLORADO
NATIONAL WEATHER SERVICE DENVER/BOULDER CO
700 PM MDT WED APR 23 2014

NOTE: "FAIR" INDICATES FEW OR NO CLOUDS BELOW 12000 FEET WITH NO
SIGNIFICANT WEATHER AND/OR OBSTRUCTIONS TO VISIBILITY.

COZ001>005-013-030-031-240200-
...NORTHWEST COLORADO...

CITY           SKY/WX    TMP DP  RH WIND       PRES   REMARKS
CRAIG          MOCLDY    47  16  29 NW17      29.94R
HAYDEN         MOCLDY    45  16  31 W14G23    29.95R
MEEKER         CLOUDY    48   7  18 NW9       29.93R
MOUNT WERNER   CLOUDY    27  23  86 W22G32    29.96S WCI  12
STEAMBOAT SPGS CLOUDY    44  11  26 W15G25    29.92S
WALDEN         MOCLDY    36  18  48 W10       29.91R
$$

COZ006>008-011-240200-
...WEST CENTRAL VALLEYS...

CITY           SKY/WX    TMP DP  RH WIND       PRES   REMARKS
GRAND JUNCTION MOSUNNY   55   7  14 W14       29.90R
MONTROSE       CLOUDY    54  12  18 NW15      29.92R
EAGLE          MOCLDY    52  16  24 SW13G18   29.90R
RIFLE          MOCLDY    52  16  24 NW18G26   29.89R
DELTA          NOT AVBL
NUCLA          NOT AVBL
$$

COZ017>023-064>068-240200-
...SOUTHWEST COLORADO...

CITY           SKY/WX    TMP DP  RH WIND       PRES   REMARKS
DURANGO        MOCLDY    52  10  18 W22G28    29.90R
CORTEZ         PTSUNNY   53  18  25 N14G22    29.93R
PAGOSA SPRINGS MOCLDY    50   6  17 SW20G28   29.91S
TELLURIDE      NOT AVBL
WOLF CREEK PAS CLOUDY    27   9  46 SW33G47   29.97R WCI   9
$$

COZ009-010-012-014-032>034-037-058>063-240200-
...CENTRAL COLORADO...

CITY           SKY/WX    TMP DP  RH WIND       PRES   REMARKS
ASPEN          CLOUDY    44  19  36 N8G20     29.91R
BUENA VISTA    CLOUDY    44  21  39 W30G37    29.84F
COPPER MTN     CLOUDY    28  18  64 W25G32    29.96F WCI  14
BERTHOUD PASS  LGT SNOW  19  10  68 NW29G38   29.93F VSB 3/4 WCI   1
COTTONWOOD PAS CLOUDY    37  21  52 W26G43    29.89F
GUNNISON       CLOUDY    45  18  33 SW12G22   29.94S
KREMMLING      CLOUDY    41  21  45 NW10G18   29.92R
LEADVILLE      CLOUDY    30  21  69 NW9G20    29.94R WCI  22
MONARCH PASS   FOG       23  21  93 W29G36    30.06S VSB<1/4 WCI   6
SALIDA         CLOUDY    47  25  42 W24G33    29.90F
SUNLIGHT       CLOUDY    32  21  64 SW3       30.00S
WILKERSON PASS CLOUDY    32  18  55 W16G25    29.92R WCI  21
$$

COZ069>075-240200-
...SAN LUIS VALLEY/SANGRE DE CRISTO MOUNTAINS...

CITY           SKY/WX    TMP DP  RH WIND       PRES   REMARKS
ALAMOSA        CLOUDY    51  17  26 W21       29.82R
LA VETA PASS   CLOUDY    36  23  60 W7G23     29.89R
SAGUACHE       CLOUDY    45  23  42 NW17      29.88R
$$

COZ035-036-038>040-240200-
...NORTHERN COLORADO FRONT RANGE...

CITY           SKY/WX    TMP DP  RH WIND       PRES   REMARKS
DENVER INTL AP CLOUDY    44  40  85 NE24G32   29.75R
DMNS CITY PARK   N/A     45  40  83 NE14G26   29.76R
AURORA         CLOUDY    48  37  66 NE26G40   29.75R THUNDER
FRONT RANGE AP NOT AVBL
ERIE MUNI ARPT LGT RAIN  49  40  70 E14G23    29.73R
BOULDER MUN AP LGT RAIN  52  36  54 E8G16     29.73R
CENTENNIAL     CLOUDY    49  34  56 NE24G33   29.75R THUNDER
BROOMFIELD     LGT RAIN  50  39  66 NE21      29.74R
FORT COLLINS   CLOUDY    55  27  33 SE16G25   29.72R
LONGMONT       NOT AVBL
$$

COZ041-046-047-076>085-087-088-240200-
...PIKES PEAK/PALMER DIVIDE AND SOUTHERN FOOTHILLS...

CITY           SKY/WX    TMP DP  RH WIND       PRES   REMARKS
COLO. SPRINGS  CLOUDY    55  33  43 NE29G45   29.68R SQUALL
A. F. ACADEMY  CLOUDY    59  21  23 NW13G26   29.68R
ELLICOTT       NOT AVBL
FALCON         CLOUDY    48  34  57 NE22G30   29.72R
FORT CARSON    CLOUDY    65  22  19 W15       29.63R
LIMON          CLOUDY    48  34  58 N37G47    29.64S
MONUMENT HILL  TSTM      37  36  93 NE18      29.75R
TRINIDAD       MOCLDY    65  21  18 W24G33    29.67R
$$

COZ042>045-048>051-090-091-240200-
...NORTHEAST COLORADO...

CITY           SKY/WX    TMP DP  RH WIND       PRES   REMARKS
GREELEY ARPT   CLOUDY    55  28  35 E18G28    29.72R
AKRON          CLOUDY    47  37  68 N33G46    29.73R
BURLINGTON     CLOUDY    66  27  23 N33G45    29.57R
WRAY           MOCLDY    63  24  22 NW29G45   29.63R
STERLING       NOT AVBL
HOLYOKE        NOT AVBL
FORT MORGAN    NOT AVBL
$$

COZ086-089-092>099-240200-
...SOUTHEAST COLORADO...

CITY           SKY/WX    TMP DP  RH WIND       PRES   REMARKS
PUEBLO         CLOUDY    71  16  12 W24G35    29.57R
LA JUNTA       CLOUDY    76  18  11 W25       29.52R HAZE
LAMAR          MOCLDY    79  18  10 W23G32    29.46R
SPRINGFIELD      N/A     74  16  11 SW17      29.52R
$$



USA.gov is the U.S. government's official web portal to all federal, state and local government web resources and services.